Location: Boiro
(42.6475°N, 8.8834°W)
Time: 00:07:51
(UTC+01:00)

A-11 Canister half - Pass Details

Date: 08 December 2021
Orbit: 1516 x 1684 km, 47.2° (Epoch: 18 January)

Event Time Altitude Azimuth Distance (km) Brightness Sun altitude
Rises 08:42:12 0° 253° (WSW) 4,744 11.1 -2.6°
Reaches altitude 10° 08:45:14 10° 255° (WSW) 3,783 10.7 -2.1°
Maximum altitude 08:54:56 79° 342° (NNW) 1,653 9.2 -0.5°
Drops below altitude 10° 09:05:01 10° 70° (ENE) 3,917 11.7 1.0°
Sets 09:08:13 0° 72° (ENE) 4,920 12.3 1.5°
